SLG Weather Reports


Display with metric or nautical units.
time (UTC)temp
F
wind
direction
speed
MPH
gust
MPH
rain 1hr
in
rain 24hr
in
rain mn
in
humidity
%
barometer
mb
20260507140210 60 355 11.0 0.0 0.00 0.00 0.03 70 1012.7
20260507133210 57 310 11.0 0.0 0.00 0.00 0.03 76 1013.0
20260507130210 54 322 8.0 0.0 0.00 0.00 0.03 83 1012.8
20260507123210 54 290 14.0 0.0 0.00 0.00 0.02 78 1013.0
20260507120211 56 28 14.0 0.0 0.00 0.00 0.02 76 1012.6
20260507113210 55 312 0.0 0.0 0.00 0.00 0.02 79 1012.7
20260507110210 55 326 0.0 0.0 0.00 0.00 0.02 75 1012.6
20260507103216 55 305 5.0 0.0 0.00 0.00 0.02 74 1012.7
20260507100212 54 223 4.0 0.0 0.00 0.00 0.02 78 1012.5
20260507093210 53 246 7.0 0.0 0.00 0.00 0.02 83 1012.3
20260507090211 52 244 10.0 0.0 0.00 0.00 0.02 88 1012.2
20260507083212 51 298 9.0 0.0 0.00 0.00 0.02 91 1012.0
20260507080211 49 277 8.0 0.0 0.00 0.00 0.02 92 1012.1
20260507073212 49 262 9.0 0.0 0.00 0.00 0.02 92 1011.8
20260507070212 48 273 8.0 0.0 0.00 0.00 0.02 92 1011.4
20260507063211 47 268 7.0 0.0 0.00 0.00 0.02 91 1011.3
20260507060211 47 252 7.0 0.0 0.00 0.00 0.00 91 1011.1
20260507053211 47 291 8.0 0.0 0.00 0.00 0.00 91 1010.9
20260507050213 47 272 9.0 0.0 0.00 0.00 0.00 91 1010.5
20260507043211 46 279 7.0 0.0 0.00 0.00 0.00 91 1010.1
20260507040216 46 286 10.0 0.0 0.00 0.00 0.00 91 1009.8
20260507033211 46 253 9.0 0.0 0.00 0.00 0.00 91 1009.7
20260507030211 46 238 11.0 0.0 0.00 0.00 0.00 92 1009.5
20260507023211 45 251 7.0 0.0 0.00 0.00 0.00 91 1009.3
20260507020211 45 227 7.0 0.0 0.00 0.00 0.00 91 1009.3
20260507013212 45 241 1.0 0.0 0.00 0.00 0.00 91 1009.2
20260507010211 45 244 8.0 0.0 0.00 0.00 0.00 91 1009.0
20260507003209 45 202 0.0 0.0 0.00 0.00 0.00 91 1008.8
20260507000209 46 209 0.0 0.0 0.00 0.00 0.00 91 1008.8
20260506233209 46 242 5.0 0.0 0.00 0.00 0.00 91 1008.8
20260506230209 46 238 3.0 0.0 0.00 0.00 0.00 91 1008.6
20260506223209 46 228 5.0 0.0 0.00 0.00 0.00 91 1008.5
20260506213209 47 239 6.0 0.0 0.00 0.00 0.20 91 1008.1
20260506210210 47 249 8.0 0.0 0.00 0.00 0.20 91 1008.1
20260506203210 47 273 9.0 0.0 0.00 0.00 0.20 91 1008.0
20260506200210 47 250 8.0 0.0 0.00 0.00 0.20 90 1007.8
20260506193215 47 282 9.0 0.0 0.00 0.00 0.20 90 1007.4
20260506190211 48 300 8.0 0.0 0.00 0.00 0.20 90 1007.1
20260506183209 48 286 8.0 0.0 0.00 0.00 0.20 90 1006.7
20260506180216 49 254 11.0 0.0 0.00 0.00 0.20 91 1006.6
20260506173210 49 232 13.0 0.0 0.00 0.00 0.20 91 1006.3
20260506170215 49 289 0.0 0.0 0.00 0.00 0.20 90 1005.7
20260506163210 49 284 9.0 0.0 0.00 0.00 0.20 90 1005.8
20260506160210 49 273 9.0 0.0 0.00 0.00 0.20 89 1005.4
20260506153210 50 304 14.0 0.0 0.00 0.00 0.17 87 1005.3
20260506150210 52 325 18.0 0.0 0.00 0.00 0.13 84 1004.7
20260506143210 58 257 21.0 0.0 0.00 0.00 0.05 76 1003.9